Location: Unspecified
(0.0000°N, 0.0000°E)
Time: 14:01:49
(UTC+00:00)

Courier 1B - Pass Details

Date: 24 November 2019
Orbit: 963 x 1209 km, 28.3° (Epoch: 08 December)

Event Time Altitude Azimuth Distance (km) Brightness Sun altitude
Rises 13:06:42 0° 279° (W) 3,631 10.7 61.6°
Reaches altitude 10° 13:09:36 10° 270° (W) 2,693 10.3 61.1°
Maximum altitude 13:15:18 32° 208° (SSW) 1,605 9.9 60.1°
Drops below altitude 10° 13:21:13 10° 146° (SE) 2,789 10.1 59.1°
Sets 13:24:17 0° 136° (SE) 3,779 10.6 58.5°
